Home   Weather   Bramsche   Past weeks

Flag for Germany Past Weather in Bramsche, Lower Saxony, Germany — Yesterday and Last 2 Weeks

Now
64 °F

Clear.


Feels Like: 64 °F
Forecast: 61 / 74 °F
Wind: 2 mph from North

Location: Muenster / Osnabrueck

Current Time: Aug 17, 2017 at 1:47:02 am

Latest Report: Aug 17, 2017 at 1:20 am


Visibility: 10 mi

Pressure: 30.07 "Hg

Humidity: 73%

Dew Point: 55 °F

Location of BramscheLocation

Past Weather in Bramsche — Graph

°F

Bramsche Temperature Yesterday

Maximum temperature yesterday: 73 °F (at 2:50 pm)
Minimum temperature yesterday: 61 °F (at 6:50 am)
Average temperature yesterday: 67 °F

High & Low Weather Summary for the Past Weeks

 TemperatureHumidityPressure
High81 °F (Aug 15, 3:20 pm)100% (Aug 2, 12:33 am)30.21 "Hg (Aug 2, 12:33 am)
Low48 °F (Aug 6, 6:20 am)36% (Aug 7, 1:50 pm)29.74 "Hg (Aug 8, 7:50 pm)
Average63 °F78%30.01 "Hg
* Reported Aug 2 12:33 am — Aug 17 12:20 am, Bramsche. Weather by CustomWeather, © 2017

Note: Actual official high and low records may vary slightly from our data, if they occured in-between our weather recording intervals... More about our weather records

Advertising

Bramsche Weather History for the Previous 24 Hours

Scroll right to see more
 ConditionsComfort  
Time TempWeatherWind HumidityBarometerVisibility
12:20 am
Thu, Aug 17
63 °FClear.2 mph77%30.09 "Hg10 mi
11:50 pm
Wed, Aug 16
63 °FPassing clouds.3 mph77%30.09 "HgN/A
11:20 pm64 °FPassing clouds.3 mph73%30.09 "HgN/A
10:50 pm64 °FPassing clouds.3 mph73%30.12 "HgN/A
10:20 pm66 °FPassing clouds.3 mph68%30.12 "HgN/A
9:50 pm66 °FPassing clouds.3 mph68%30.12 "HgN/A
8:50 pm68 °FPassing clouds.3 mph64%30.12 "HgN/A
8:20 pm70 °FPassing clouds.3 mph60%30.12 "HgN/A
7:50 pm70 °FPartly sunny.3 mph60%30.12 "HgN/A
7:20 pm73 °FPartly sunny.3 mph50%30.12 "HgN/A
6:50 pm72 °FPassing clouds.3 mph57%30.12 "HgN/A
6:20 pm72 °FPassing clouds.3 mph57%30.12 "HgN/A
5:50 pm72 °FBroken clouds.3 mph57%30.12 "HgN/A
5:20 pm73 °FBroken clouds.3 mph47%30.15 "HgN/A
4:50 pm73 °FBroken clouds.3 mph50%30.15 "HgN/A
4:20 pm73 °FBroken clouds.3 mph50%30.15 "HgN/A
3:50 pm72 °FPartly sunny.3 mph53%30.15 "HgN/A
3:20 pm73 °FPartly sunny.3 mph50%30.15 "HgN/A
2:50 pm73 °FPartly sunny.2 mph50%30.15 "HgN/A
2:20 pm72 °FPartly sunny.3 mph50%30.15 "HgN/A
1:50 pm72 °FPartly sunny.3 mph50%30.15 "HgN/A
1:20 pm72 °FPartly sunny.3 mph50%30.18 "HgN/A
12:50 pm70 °FPartly sunny.2 mph57%30.18 "HgN/A
12:20 pm70 °FPartly sunny.3 mph60%30.18 "HgN/A
11:50 am68 °FPartly sunny.2 mph64%30.18 "HgN/A
11:20 am68 °FScattered clouds.1 mph69%30.18 "HgN/A
10:50 am66 °FPassing clouds.2 mph73%30.18 "HgN/A
10:20 am64 °FPassing clouds.2 mph78%30.18 "Hg5 mi
9:50 am64 °FPassing clouds.2 mph83%30.15 "Hg4 mi
9:05 am63 °FFog.5 mph88%30.15 "Hg3 mi
8:50 am64 °FFog.5 mph83%30.15 "Hg2 mi
8:20 am63 °FFog.5 mph88%30.15 "Hg2 mi
7:50 am61 °FFog.3 mph94%30.15 "Hg2 mi
7:20 am61 °FFog.3 mph94%30.12 "Hg2 mi
6:59 am61 °FFog.5 mph94%30.12 "Hg2 mi
6:50 am61 °FFog.5 mph94%30.12 "Hg2 mi
6:20 am63 °FFog.6 mph94%30.12 "Hg2 mi
5:50 am63 °FFog.5 mph94%30.09 "Hg1 mi
5:20 am63 °FFog.3 mph94%30.09 "Hg1 mi
4:50 am63 °FFog.3 mph94%30.09 "Hg1 mi
4:20 am63 °FFog.2 mph94%30.09 "Hg3 mi
3:50 am63 °FFog.3 mph94%30.09 "Hg3 mi
3:20 am63 °FPartly cloudy.6 mph94%30.07 "Hg4 mi
2:50 am63 °FPartly cloudy.5 mph94%30.07 "Hg4 mi
2:20 am63 °FPassing clouds.6 mph100%30.07 "Hg4 mi
1:50 am64 °FPassing clouds.7 mph94%30.07 "Hg4 mi
1:20 am64 °FPassing clouds.6 mph94%30.04 "Hg5 mi
Weather by CustomWeather, © 2017

See weather overviewHow to use our weather pages